CW2103 Weather Reports


Display with metric or nautical units.
time (UTC)temp
F
wind
direction
speed
MPH
gust
MPH
rain 1hr
in
rain 24hr
in
rain mn
in
humidity
%
barometer
mb
20181017011508 59 314 2.0 3.0 0.00 0.00 0.00 83 1018.9
20181017005506 59 314 1.0 3.0 0.00 0.00 0.00 83 1019.2
20181017004506 59 314 2.0 3.0 0.00 0.00 0.00 83 1019.2
20181017001506 58 323 3.0 4.0 0.00 0.00 0.00 85 1019.3
20181017000506 58 323 3.0 5.0 0.00 0.00 0.00 86 1019.4
20181016235506 58 344 3.0 4.0 0.00 0.00 0.00 86 1019.5
20181016234506 58 347 2.0 4.0 0.00 0.00 0.00 86 1019.5
20181016233505 58 337 2.0 3.0 0.00 0.00 0.00 86 1019.4
20181016231506 58 336 2.0 3.0 0.00 0.00 0.00 86 1019.7
20181016225505 58 336 2.0 3.0 0.00 0.00 0.00 86 1019.8
20181016224506 58 336 3.0 3.0 0.00 0.00 0.00 86 1019.9
20181016221505 59 357 2.0 3.0 0.00 0.00 0.00 86 1020.0
20181016220504 59 357 2.0 3.0 0.00 0.00 0.00 86 1020.0
20181016213504 59 349 2.0 2.0 0.00 0.00 0.00 86 1020.1
20181016211505 59 349 2.0 2.0 0.00 0.00 0.00 86 1020.2
20181016210503 59 349 2.0 3.0 0.00 0.00 0.00 86 1020.2
20181016205503 59 349 1.0 2.0 0.00 0.00 0.00 86 1020.3
20181016202503 59 349 2.0 3.0 0.00 0.00 0.00 84 1020.2
20181016195502 60 349 2.0 2.0 0.00 0.00 0.00 85 1020.2
20181016193503 61 348 2.0 3.0 0.00 0.00 0.00 84 1020.2
20181016192502 61 350 2.0 4.0 0.00 0.00 0.00 85 1020.1
20181016191503 61 356 3.0 3.0 0.00 0.00 0.00 84 1020.1
20181016183502 62 356 3.0 3.0 0.00 0.00 0.00 83 1020.1
20181016182501 62 356 1.0 3.0 0.00 0.00 0.00 81 1020.2
20181016181503 62 356 2.0 3.0 0.00 0.00 0.00 81 1020.2
20181016175501 63 356 1.0 3.0 0.00 0.00 0.00 79 1020.3
20181016172500 64 356 0.0 0.0 0.00 0.00 0.00 76 1020.1